Overview Statistics Trail Chart Weather Telemetry Raw packets
 

This is the latest recevied weather packets stored in our database for station/object K8RRT. If no packets are shown the sender has not sent any weather packets the latest 10 day(s).

<< 9 10 11 12 13 14 15 >>
Time Temp. Humidity Pressure Rain* Wind** Luminosity Snow
1788551638 31.11° C 72% 1011.1 hPa 0 mm - 173 W/m² -
1788551333 31.11° C 70% 1011.4 hPa 0 mm - 188 W/m² -
1788551032 31.11° C 71% 1011.5 hPa 0 mm - 225 W/m² -
1788550728 31.67° C 71% 1011.3 hPa 0 mm - 147 W/m² -
1788550423 31.67° C 70% 1011 hPa 0 mm - 186 W/m² -
1788550118 33.33° C 67% 1010.9 hPa 0 mm - 212 W/m² -
1788549813 32.78° C 66% 1011.2 hPa 0 mm - 512 W/m² -
1788549510 32.22° C 65% 1010.8 hPa 0 mm - 690 W/m² -
1788549206 32.78° C 64% 1010.7 hPa 0 mm - 722 W/m² -
1788548903 32.22° C 66% 1010.7 hPa 0 mm - 736 W/m² -
1788548598 32.78° C 65% 1011 hPa 0 mm - 748 W/m² -
1788548294 32.22° C 67% 1010.9 hPa 0 mm - 725 W/m² -
1788547990 33.33° C 62% 1011 hPa 0 mm - 711 W/m² -
1788547689 32.78° C 64% 1011 hPa 0 mm - 720 W/m² -
1788547384 32.22° C 67% 1010.9 hPa 0 mm - 422 W/m² -
1788547079 32.78° C 65% 1011.2 hPa 0 mm - 674 W/m² -
1788546774 32.78° C 65% 1011 hPa 0 mm - 642 W/m² -
1788546469 32.78° C 67% 1011.2 hPa 0 mm - 635 W/m² -
1788546164 31.67° C 69% 1011.5 hPa 0 mm - 655 W/m² -
1788545860 31.11° C 69% 1011.1 hPa 0 mm - 650 W/m² -
1788545560 30° C 74% 1011.4 hPa 0 mm - 622 W/m² -
1788545255 29.44° C 76% 1011.5 hPa 0 mm - 166 W/m² -
1788544951 30° C 75% 1011.5 hPa 0 mm - 64 W/m² -
1788544649 32.78° C 71% 1011.4 hPa 0 mm - 53 W/m² -
1788544348 33.33° C 67% 1011.5 hPa 0 mm - 122 W/m² -

* Rain latest hour (hover to see other rain measurements)
** Current wind speed in m/s (hover to see current wind gust speed)